STARLINK-3117, 49435

Orbit data source: Space-Track

STARLINK-3117, 49435 is a payload satellite owned by SpaceX/Seattle (US) in LEO that was launched on Sat, 13 Nov 2021 UTC via an FALCON 9 launch vehicle from the Air Force Eastern Test Range (AFETR). Payload-class satellites include a variety of spacecraft equipped with specific instruments for various scientific and technological missions. These include communications satellites like Starlink; space stations such as the ISS; scientific satellites like the Hubble; Earth observation satellites from companies like Planet Labs, Umbra, and HawkEye 360; GPS; miniature CubeSats for education and research; and military/defense satellites.

Loading next visibility...
Identifier
49435, 2021-104AD
Orbit
LEO
Country
Flag of USUS
Related business
Manufacturer
SpaceX/Seattle
Mission
Operational Commercial Communications
Bus & Motor
STARLINK, Unknown motor
Mass
290 kg wet, ~270 kg dry
Launch date (UTC)
2021-11-13 (5 years ago)
Launch vehicle
FALCON 9
Launch site
Air Force Eastern Test Range (AFETR)
Object type
Payload
Rocket body
Debris
Shape & HBR
Box + 1 Pan, 10.1 m
Radar Cross Section
13.562 m², Large (>1 m²)

Expand to show TLE details & history
Last TLE update: 3 days ago

TLE from 3 days ago
0 STARLINK-3117
1 49435U 21104AD  26170.97835492  .00004100  00000-0  27549-3 0  9991
2 49435  53.1613 109.8187 0001508  94.1973 265.9191 15.08844768254350
Epoch: 2026-06-19T23:28Z
TLE epoch observation values (Epoch: 2026-06-19T23:28:49.865Z)
Latitude
0.00001°
Longitude
-150.58864°
Altitude
540.695 km
Speed
7.593 km/s
True Right ascension
07h 19m 16s
True Declination
0° 00' 00"
Sunlit
Object was in daylight at epoch
Visualization orbit readout
Latitude
Unknown
Longitude
Unknown
Altitude
Unknown
Speed
Unknown
Apparent Right ascension
Unknown
Apparent Declination
Unknown
Sunlit
N/A
Visualization observer readout
Local Sidereal Time
23:08:42
Azimuth
Unknown
Elevation
Unknown
Doppler factor
Unknown
Orbital elements
Apogee altitude
541.026 km
Perigee altitude
538.939 km
Semi-major axis
6,918.12 km
Eccentricity
0.00015
Inclination
53.1613°
RAAN
109.8187°
Arg. of periapsis
94.1973°
True anomaly
265.90186°
Mean anomaly
265.9191°
Eccentric anomaly
265.91048°
Mean motion
3.77191 °/min
Orbital period
95.44 mins
BSTAR
0.00027549
Loading maneuver chart data...
Computing Atmospheric mass density...

Documentation

Showing up to 5 results
|